Вернуться в каталог

STARLINK-30571

АктивенСвязьVLEO
NORAD 58066·PAYLOAD·🇺🇸 United States

Запущен Oct 13, 2023 с Cape Canaveral Space Force Station

Loading…

Ближайшие Пролёты (ближайшие 24 часа)

TLE

СвежийSource: CelesTrak SupGP

Эпоха: Sep 14, 2026, 21:42 UTC

1 58066C 23158R   26257.90465278  .00040925  00000+0  14820-2 0  2570
2 58066  43.0015  38.6650 0001511 270.7345 157.3450 15.27565036    10

Отслеживайте STARLINK-30571 в реальном времени с AllMySat

Download on the App Store